Location: Ca�n Batista
(41.4099°N, 1.7752°E)
Time: 13:30:11
(UTC+00:00)

IRS-1C Rocket - Pass Details

Date: 03 March 2021
Orbit: 800 x 806 km, 99.0° (Epoch: 21 April)

Event Time Altitude Azimuth Distance (km) Brightness Sun altitude
Rises 18:03:24 0° 154° (SSE) 3,301 7.1 -4.1°
Reaches altitude 10° 18:05:45 10° 151° (SSE) 2,375 6.3 -4.5°
Maximum altitude 18:10:54 61° 72° (ENE) 915 4.2 -5.5°
Drops below altitude 10° 18:16:07 10° 353° (N) 2,394 6.6 -6.4°
Sets 18:18:28 0° 350° (N) 3,330 7.4 -6.9°
